Time,TemperatureF,DewpointF,PressureIn,WindDirection,WindDirectionDegrees,WindSpeedMPH,WindSpeedGustMPH,Humidity,HourlyPrecipIn,Conditions,Clouds,dailyrainin,SolarRadiationWatts/m^2,SoftwareType,DateUTC
2013-02-08 00:21:00,35.0,20.0,-100.00,ESE,122,13.0,20.0,53,-99.99,,,-99.99,0.000000,,2013-02-08 08:21:00,
2013-02-08 00:32:00,35.0,20.0,-100.00,ESE,122,13.0,20.0,53,-99.99,,,-99.99,0.000000,,2013-02-08 08:32:00,
2013-02-08 00:41:00,36.0,20.0,-100.00,ESE,123,14.0,21.0,52,-99.99,,,-99.99,0.000000,,2013-02-08 08:41:00,
2013-02-08 00:52:00,36.0,20.0,-100.00,ESE,123,14.0,21.0,52,-99.99,,,-99.99,0.000000,,2013-02-08 08:52:00,
2013-02-08 01:02:00,36.0,19.0,-100.00,ESE,121,15.0,22.0,51,-99.99,,,-99.99,0.000000,,2013-02-08 09:02:00,
2013-02-08 01:11:00,36.0,20.0,-100.00,ESE,123,13.0,20.0,53,-99.99,,,-99.99,0.000000,,2013-02-08 09:11:00,
2013-02-08 01:21:00,36.0,20.0,-100.00,ESE,122,13.0,22.0,52,-99.99,,,-99.99,0.000000,,2013-02-08 09:21:00,
2013-02-08 01:31:00,36.0,20.0,-100.00,ESE,122,13.0,22.0,52,-99.99,,,-99.99,0.000000,,2013-02-08 09:31:00,
2013-02-08 01:42:00,36.0,20.0,-100.00,ESE,121,14.0,23.0,53,-99.99,,,-99.99,0.000000,,2013-02-08 09:42:00,
2013-02-08 01:51:00,35.0,20.0,-100.00,ESE,118,14.0,21.0,53,-99.99,,,-99.99,0.000000,,2013-02-08 09:51:00,
2013-02-08 02:01:00,35.0,20.0,-100.00,ESE,120,14.0,20.0,53,-99.99,,,-99.99,0.000000,,2013-02-08 10:01:00,
2013-02-08 02:10:00,35.0,20.0,-100.00,ESE,122,12.0,19.0,54,-99.99,,,-99.99,0.000000,,2013-02-08 10:10:00,
2013-02-08 02:11:00,35.0,20.0,-100.00,ESE,120,14.0,21.0,54,-99.99,,,-99.99,0.000000,,2013-02-08 10:11:00,
2013-02-08 02:22:00,35.0,20.0,-100.00,ESE,116,15.0,25.0,54,-99.99,,,-99.99,0.000000,,2013-02-08 10:22:00,
2013-02-08 02:31:00,35.0,20.0,-100.00,ESE,117,15.0,23.0,52,-99.99,,,-99.99,0.000000,,2013-02-08 10:31:00,
2013-02-08 02:41:00,35.0,19.0,-100.00,ESE,120,14.0,20.0,52,-99.99,,,-99.99,0.000000,,2013-02-08 10:41:00,
2013-02-08 02:51:00,35.0,20.0,-100.00,ESE,118,13.0,20.0,54,-99.99,,,-99.99,0.000000,,2013-02-08 10:51:00,
2013-02-08 03:01:00,35.0,20.0,-100.00,ESE,122,12.0,19.0,54,-99.99,,,-99.99,0.000000,,2013-02-08 11:01:00,
2013-02-08 03:21:00,34.0,21.0,-100.00,SSE,160,7.0,11.0,58,-99.99,,,-99.99,0.000000,,2013-02-08 11:21:00,
2013-02-08 03:32:00,34.0,21.0,-100.00,SSE,160,7.0,11.0,58,-99.99,,,-99.99,0.000000,,2013-02-08 11:32:00,
2013-02-08 03:41:00,32.0,22.0,-100.00,SSW,194,10.0,15.0,64,-99.99,,,-99.99,0.000000,,2013-02-08 11:41:00,
2013-02-08 03:52:00,32.0,22.0,-100.00,SSW,194,10.0,15.0,64,-99.99,,,-99.99,0.000000,,2013-02-08 11:52:00,
2013-02-08 04:01:00,33.0,21.0,-100.00,South,187,9.0,14.0,62,-99.99,,,-99.99,1.000000,,2013-02-08 12:01:00,
2013-02-08 04:11:00,33.0,21.0,-100.00,South,190,7.0,11.0,62,-99.99,,,-99.99,0.000000,,2013-02-08 12:11:00,
2013-02-08 04:22:00,33.0,22.0,-100.00,SSW,202,6.0,8.0,64,-99.99,,,-99.99,0.000000,,2013-02-08 12:22:00,
2013-02-08 04:30:00,32.0,21.0,-100.00,South,176,5.0,8.0,63,-99.99,,,-99.99,0.000000,,2013-02-08 12:30:00,
2013-02-08 04:32:00,33.0,22.0,-100.00,SSW,202,6.0,8.0,64,-99.99,,,-99.99,0.000000,,2013-02-08 12:32:00,
2013-02-08 04:42:00,32.0,22.0,-100.00,SSW,205,7.0,9.0,66,-99.99,,,-99.99,0.000000,,2013-02-08 12:42:00,
2013-02-08 04:52:00,32.0,22.0,-100.00,SSW,205,7.0,9.0,66,-99.99,,,-99.99,0.000000,,2013-02-08 12:52:00,
2013-02-08 05:01:00,32.0,21.0,-100.00,South,184,5.0,9.0,63,-99.99,,,-99.99,0.000000,,2013-02-08 13:01:00,
2013-02-08 05:11:00,33.0,21.0,-100.00,SSE,159,5.0,10.0,61,-99.99,,,-99.99,0.000000,,2013-02-08 13:11:00,
2013-02-08 05:21:00,32.0,21.0,-100.00,South,176,5.0,8.0,63,-99.99,,,-99.99,0.000000,,2013-02-08 13:21:00,
2013-02-08 06:00:00,29.0,28.0,-100.00,ESE,109,4.0,11.0,96,-99.99,,,-99.99,0.000000,,2013-02-08 14:00:00,
2013-02-08 06:11:00,30.0,28.0,-100.00,ESE,111,9.0,16.0,92,-99.99,,,-99.99,0.000000,,2013-02-08 14:11:00,
2013-02-08 06:20:00,27.0,26.0,-100.00,North,349,6.0,12.0,96,-99.99,,,-99.99,0.000000,,2013-02-08 14:20:00,
2013-02-08 06:21:00,29.0,28.0,-100.00,ESE,122,6.0,9.0,95,-99.99,,,-99.99,0.000000,,2013-02-08 14:21:00,
2013-02-08 06:32:00,29.0,28.0,-100.00,ESE,122,6.0,9.0,95,-99.99,,,-99.99,0.000000,,2013-02-08 14:32:00,
2013-02-08 06:42:00,29.0,28.0,-100.00,ESE,109,4.0,11.0,96,-99.99,,,-99.99,0.000000,,2013-02-08 14:42:00,
2013-02-08 06:52:00,29.0,28.0,-100.00,ESE,109,4.0,11.0,96,-99.99,,,-99.99,0.000000,,2013-02-08 14:52:00,
2013-02-08 07:00:00,26.0,26.0,-100.00,North,358,6.0,10.0,97,-99.99,,,-99.99,7.000000,,2013-02-08 15:00:00,
2013-02-08 07:11:00,27.0,26.0,-100.00,North,349,6.0,12.0,96,-99.99,,,-99.99,0.000000,,2013-02-08 15:11:00,
2013-02-08 07:20:00,26.0,25.0,-100.00,North,349,7.0,13.0,97,-99.99,,,-99.99,7.000000,,2013-02-08 15:20:00,
2013-02-08 07:40:00,27.0,26.0,-100.00,NNW,327,7.0,10.0,97,-99.99,,,-99.99,12.000000,,2013-02-08 15:40:00,
2013-02-08 07:42:00,26.0,26.0,-100.00,North,358,6.0,10.0,97,-99.99,,,-99.99,7.000000,,2013-02-08 15:42:00,
2013-02-08 07:51:00,26.0,26.0,-100.00,North,358,6.0,10.0,97,-99.99,,,-99.99,7.000000,,2013-02-08 15:51:00,
2013-02-08 08:00:00,27.0,26.0,-100.00,North,353,5.0,8.0,97,-99.99,,,-99.99,19.000000,,2013-02-08 16:00:00,
2013-02-08 08:11:00,26.0,25.0,-100.00,North,349,7.0,13.0,97,-99.99,,,-99.99,7.000000,,2013-02-08 16:11:00,
2013-02-08 08:20:00,27.0,26.0,-100.00,NNE,24,4.0,6.0,97,-99.99,,,-99.99,46.000000,,2013-02-08 16:20:00,
2013-02-08 08:32:00,27.0,26.0,-100.00,NNW,327,7.0,10.0,97,-99.99,,,-99.99,12.000000,,2013-02-08 16:32:00,
2013-02-08 08:51:00,27.0,26.0,-100.00,North,353,5.0,8.0,97,-99.99,,,-99.99,19.000000,,2013-02-08 16:51:00,
2013-02-08 09:12:00,27.0,26.0,-100.00,NNE,24,4.0,6.0,97,-99.99,,,-99.99,46.000000,,2013-02-08 17:12:00,
2013-02-08 09:20:00,29.0,28.0,-100.00,ENE,57,3.0,5.0,96,-99.99,,,-99.99,74.000000,,2013-02-08 17:20:00,
2013-02-08 09:40:00,29.0,28.0,-100.00,NNE,24,5.0,7.0,96,-99.99,,,-99.99,74.000000,,2013-02-08 17:40:00,
2013-02-08 09:42:00,28.0,28.0,-100.00,NNW,345,2.0,6.0,97,-99.99,,,-99.99,49.000000,,2013-02-08 17:42:00,
2013-02-08 09:52:00,28.0,28.0,-100.00,NNW,345,2.0,6.0,97,-99.99,,,-99.99,49.000000,,2013-02-08 17:52:00,
2013-02-08 10:00:00,29.0,28.0,-100.00,NE,34,5.0,9.0,94,-99.99,,,-99.99,122.000000,,2013-02-08 18:00:00,
2013-02-08 10:01:00,29.0,28.0,-100.00,NNE,23,3.0,5.0,96,-99.99,,,-99.99,56.000000,,2013-02-08 18:01:00,
2013-02-08 10:12:00,29.0,28.0,-100.00,ENE,57,3.0,5.0,96,-99.99,,,-99.99,74.000000,,2013-02-08 18:12:00,
2013-02-08 10:34:00,29.0,28.0,-100.00,NNE,24,5.0,7.0,96,-99.99,,,-99.99,74.000000,,2013-02-08 18:34:00,
2013-02-08 10:52:00,29.0,28.0,-100.00,NE,34,5.0,9.0,94,-99.99,,,-99.99,122.000000,,2013-02-08 18:52:00,
2013-02-08 11:32:00,33.0,28.0,-100.00,NNW,348,3.0,5.0,84,-99.99,,,-99.99,222.000000,,2013-02-08 19:32:00,
2013-02-08 11:42:00,33.0,27.0,-100.00,NNW,339,3.0,5.0,80,-99.99,,,-99.99,262.000000,,2013-02-08 19:42:00,
2013-02-08 11:52:00,33.0,28.0,-100.00,NNE,21,4.0,6.0,83,-99.99,,,-99.99,252.000000,,2013-02-08 19:52:00,
2013-02-08 12:01:00,33.0,28.0,-100.00,NNE,17,3.0,5.0,82,-99.99,,,-99.99,280.000000,,2013-02-08 20:01:00,
2013-02-08 12:11:00,34.0,28.0,-100.00,NNE,17,3.0,4.0,79,-99.99,,,-99.99,255.000000,,2013-02-08 20:11:00,
2013-02-08 12:21:00,33.0,27.0,-100.00,NNE,29,3.0,5.0,78,-99.99,,,-99.99,231.000000,,2013-02-08 20:21:00,
2013-02-08 12:31:00,33.0,27.0,-100.00,NNE,29,3.0,5.0,78,-99.99,,,-99.99,231.000000,,2013-02-08 20:31:00,
2013-02-08 12:41:00,32.0,26.0,-100.00,NNW,332,5.0,6.0,78,-99.99,,,-99.99,268.000000,,2013-02-08 20:41:00,
2013-02-08 12:52:00,32.0,26.0,-100.00,NNW,330,4.0,7.0,79,-99.99,,,-99.99,328.000000,,2013-02-08 20:52:00,
2013-02-08 13:01:00,32.0,26.0,-100.00,NNW,330,4.0,7.0,79,-99.99,,,-99.99,328.000000,,2013-02-08 21:01:00,
2013-02-08 13:11:00,32.0,27.0,-100.00,North,8,7.0,10.0,80,-99.99,,,-99.99,454.000000,,2013-02-08 21:11:00,
2013-02-08 13:21:00,32.0,27.0,-100.00,North,353,7.0,10.0,84,-99.99,,,-99.99,380.000000,,2013-02-08 21:21:00,
2013-02-08 13:30:00,31.0,27.0,-100.00,North,351,6.0,8.0,86,-99.99,,,-99.99,350.000000,,2013-02-08 21:30:00,
2013-02-08 13:32:00,32.0,27.0,-100.00,North,353,7.0,10.0,84,-99.99,,,-99.99,380.000000,,2013-02-08 21:32:00,
2013-02-08 13:42:00,31.0,27.0,-100.00,NNW,342,8.0,11.0,87,-99.99,,,-99.99,304.000000,,2013-02-08 21:42:00,
2013-02-08 13:50:00,32.0,27.0,-100.00,NNW,343,3.0,6.0,83,-99.99,,,-99.99,257.000000,,2013-02-08 21:50:00,
2013-02-08 13:52:00,30.0,27.0,-100.00,NNW,338,8.0,10.0,89,-99.99,,,-99.99,302.000000,,2013-02-08 21:52:00,
2013-02-08 14:01:00,31.0,27.0,-100.00,NNW,345,6.0,9.0,88,-99.99,,,-99.99,351.000000,,2013-02-08 22:01:00,
2013-02-08 14:10:00,29.0,26.0,-100.00,SE,129,11.0,17.0,88,-99.99,,,-99.99,113.000000,,2013-02-08 22:10:00,
2013-02-08 14:11:00,31.0,27.0,-100.00,North,351,6.0,8.0,86,-99.99,,,-99.99,350.000000,,2013-02-08 22:11:00,
2013-02-08 14:21:00,31.0,27.0,-100.00,North,351,6.0,8.0,86,-99.99,,,-99.99,350.000000,,2013-02-08 22:21:00,
2013-02-08 14:42:00,32.0,27.0,-100.00,NNW,343,3.0,6.0,83,-99.99,,,-99.99,257.000000,,2013-02-08 22:42:00,
2013-02-08 15:01:00,29.0,26.0,-100.00,SE,129,11.0,17.0,88,-99.99,,,-99.99,113.000000,,2013-02-08 23:01:00,
2013-02-08 15:41:00,28.0,24.0,-100.00,ESE,120,15.0,21.0,86,-99.99,,,-99.99,251.000000,,2013-02-08 23:41:00,
2013-02-08 15:52:00,28.0,24.0,-100.00,ESE,113,11.0,20.0,84,-99.99,,,-99.99,215.000000,,2013-02-08 23:52:00,
2013-02-08 16:02:00,29.0,24.0,-100.00,ESE,104,9.0,17.0,80,-99.99,,,-99.99,173.000000,,2013-02-09 00:02:00,
2013-02-08 16:11:00,30.0,22.0,-100.00,ESE,114,6.0,10.0,74,-99.99,,,-99.99,87.000000,,2013-02-09 00:11:00,
2013-02-08 16:21:00,30.0,22.0,-100.00,ESE,114,6.0,10.0,74,-99.99,,,-99.99,87.000000,,2013-02-09 00:21:00,
2013-02-08 16:32:00,30.0,21.0,-100.00,SSE,153,6.0,11.0,71,-99.99,,,-99.99,72.000000,,2013-02-09 00:32:00,
2013-02-08 16:42:00,29.0,23.0,-100.00,WSW,245,9.0,12.0,79,-99.99,,,-99.99,60.000000,,2013-02-09 00:42:00,
2013-02-08 16:52:00,28.0,23.0,-100.00,West,267,9.0,12.0,80,-99.99,,,-99.99,57.000000,,2013-02-09 00:52:00,
2013-02-08 17:01:00,27.0,23.0,-100.00,West,262,8.0,10.0,84,-99.99,,,-99.99,46.000000,,2013-02-09 01:01:00,
2013-02-08 17:10:00,27.0,24.0,-100.00,North,8,1.0,2.0,90,-99.99,,,-99.99,7.000000,,2013-02-09 01:10:00,
2013-02-08 17:11:00,27.0,24.0,-100.00,West,263,8.0,11.0,91,-99.99,,,-99.99,34.000000,,2013-02-09 01:11:00,
2013-02-08 17:21:00,27.0,24.0,-100.00,WSW,248,7.0,8.0,91,-99.99,,,-99.99,21.000000,,2013-02-09 01:21:00,
2013-02-08 17:31:00,27.0,24.0,-100.00,WSW,248,7.0,8.0,91,-99.99,,,-99.99,21.000000,,2013-02-09 01:31:00,
2013-02-08 17:41:00,27.0,25.0,-100.00,WSW,244,3.0,6.0,92,-99.99,,,-99.99,10.000000,,2013-02-09 01:41:00,
2013-02-08 17:52:00,27.0,24.0,-100.00,North,8,1.0,2.0,90,-99.99,,,-99.99,7.000000,,2013-02-09 01:52:00,
2013-02-08 18:01:00,27.0,24.0,-100.00,North,8,1.0,2.0,90,-99.99,,,-99.99,7.000000,,2013-02-09 02:01:00,
2013-02-08 18:21:00,26.0,24.0,-100.00,North,7,3.0,4.0,92,-99.99,,,-99.99,0.000000,,2013-02-09 02:21:00,
2013-02-08 18:32:00,26.0,24.0,-100.00,NNE,22,2.0,3.0,93,-99.99,,,-99.99,0.000000,,2013-02-09 02:32:00,
2013-02-08 18:41:00,26.0,24.0,-100.00,NNE,23,2.0,3.0,93,-99.99,,,-99.99,0.000000,,2013-02-09 02:41:00,
2013-02-08 18:52:00,26.0,25.0,-100.00,NNE,26,1.0,2.0,94,-99.99,,,-99.99,0.000000,,2013-02-09 02:52:00,
2013-02-08 19:01:00,26.0,25.0,-100.00,ENE,76,0.0,2.0,94,-99.99,,,-99.99,0.000000,,2013-02-09 03:01:00,
2013-02-08 19:11:00,26.0,25.0,-100.00,ENE,76,0.0,2.0,94,-99.99,,,-99.99,0.000000,,2013-02-09 03:11:00,
2013-02-08 19:21:00,26.0,25.0,-100.00,East,91,0.0,2.0,94,-99.99,,,-99.99,1.000000,,2013-02-09 03:21:00,
2013-02-08 19:32:00,26.0,25.0,-100.00,East,101,0.0,2.0,94,-99.99,,,-99.99,0.000000,,2013-02-09 03:32:00,
2013-02-08 19:41:00,26.0,25.0,-100.00,East,101,0.0,2.0,94,-99.99,,,-99.99,0.000000,,2013-02-09 03:41:00,
2013-02-08 19:52:00,26.0,24.0,-100.00,South,170,1.0,3.0,94,-99.99,,,-99.99,0.000000,,2013-02-09 03:52:00,
2013-02-08 20:02:00,26.0,24.0,-100.00,South,173,3.0,6.0,94,-99.99,,,-99.99,0.000000,,2013-02-09 04:02:00,
2013-02-08 20:11:00,26.0,24.0,-100.00,South,174,4.0,7.0,93,-99.99,,,-99.99,0.000000,,2013-02-09 04:11:00,
2013-02-08 20:22:00,25.0,24.0,-100.00,SSE,157,7.0,10.0,94,-99.99,,,-99.99,0.000000,,2013-02-09 04:22:00,
2013-02-08 20:32:00,25.0,24.0,-100.00,SSE,149,8.0,11.0,95,-99.99,,,-99.99,0.000000,,2013-02-09 04:32:00,
2013-02-08 20:40:00,25.0,24.0,-100.00,SE,136,7.0,11.0,97,-99.99,,,-99.99,0.000000,,2013-02-09 04:40:00,
2013-02-08 20:42:00,25.0,24.0,-100.00,SSE,149,8.0,11.0,95,-99.99,,,-99.99,0.000000,,2013-02-09 04:42:00,
2013-02-08 20:52:00,25.0,24.0,-100.00,SSE,148,9.0,12.0,96,-99.99,,,-99.99,0.000000,,2013-02-09 04:52:00,
2013-02-08 21:00:00,25.0,24.0,-100.00,SE,135,7.0,9.0,97,-99.99,,,-99.99,1.000000,,2013-02-09 05:00:00,
2013-02-08 21:02:00,25.0,24.0,-100.00,SE,146,8.0,12.0,96,-99.99,,,-99.99,0.000000,,2013-02-09 05:02:00,
2013-02-08 21:12:00,25.0,24.0,-100.00,SE,143,8.0,10.0,97,-99.99,,,-99.99,0.000000,,2013-02-09 05:12:00,
2013-02-08 21:22:00,25.0,24.0,-100.00,SE,136,7.0,9.0,97,-99.99,,,-99.99,0.000000,,2013-02-09 05:22:00,
2013-02-08 21:31:00,25.0,24.0,-100.00,SE,136,7.0,11.0,97,-99.99,,,-99.99,0.000000,,2013-02-09 05:31:00,
2013-02-08 21:40:00,25.0,24.0,-100.00,SSE,150,4.0,5.0,97,-99.99,,,-99.99,0.000000,,2013-02-09 05:40:00,
2013-02-08 21:52:00,25.0,24.0,-100.00,SE,135,7.0,9.0,97,-99.99,,,-99.99,1.000000,,2013-02-09 05:52:00,
2013-02-08 22:11:00,25.0,24.0,-100.00,SE,141,7.0,9.0,97,-99.99,,,-99.99,1.000000,,2013-02-09 06:11:00,
2013-02-08 22:21:00,25.0,24.0,-100.00,SSE,150,4.0,5.0,97,-99.99,,,-99.99,0.000000,,2013-02-09 06:21:00,
2013-02-08 22:31:00,25.0,24.0,-100.00,SSE,150,4.0,5.0,97,-99.99,,,-99.99,0.000000,,2013-02-09 06:31:00,
2013-02-08 22:40:00,23.0,22.0,-100.00,NNW,341,9.0,13.0,96,-99.99,,,-99.99,0.000000,,2013-02-09 06:40:00,
2013-02-08 23:01:00,23.0,23.0,-100.00,NNW,344,9.0,12.0,97,-99.99,,,-99.99,0.000000,,2013-02-09 07:01:00,
2013-02-08 23:11:00,23.0,23.0,-100.00,NNW,344,9.0,12.0,97,-99.99,,,-99.99,0.000000,,2013-02-09 07:11:00,
2013-02-08 23:21:00,23.0,23.0,-100.00,NNW,341,9.0,13.0,97,-99.99,,,-99.99,0.000000,,2013-02-09 07:21:00,
2013-02-08 23:31:00,23.0,22.0,-100.00,NNW,341,9.0,13.0,96,-99.99,,,-99.99,0.000000,,2013-02-09 07:31:00,
2013-02-08 23:51:00,23.0,22.0,-100.00,NNW,339,10.0,14.0,96,-99.99,,,-99.99,0.000000,,2013-02-09 07:51:00,